"Datum/tijd (MEZT)";"verwachting, vectrale stroom km/u"
2024-04-18 13:00;-1.476
2024-04-18 13:10;-1.476
2024-04-18 13:20;-1.476
2024-04-18 13:30;-1.44
2024-04-18 13:40;-1.332
2024-04-18 13:50;-1.26
2024-04-18 14:00;-1.116
2024-04-18 14:10;-0.972
2024-04-18 14:20;-0.792
2024-04-18 14:30;-0.612
2024-04-18 14:40;-0.432
2024-04-18 14:50;-0.252
2024-04-18 15:00;0
2024-04-18 15:10;0.252
2024-04-18 15:20;0.468
2024-04-18 15:30;0.684
2024-04-18 15:40;0.9
2024-04-18 15:50;1.044
2024-04-18 16:00;1.188
2024-04-18 16:10;1.296
2024-04-18 16:20;1.404
2024-04-18 16:30;1.476
2024-04-18 16:40;1.548
2024-04-18 16:50;1.584
2024-04-18 17:00;1.656
2024-04-18 17:10;1.692
2024-04-18 17:20;1.692
2024-04-18 17:30;1.728
2024-04-18 17:40;1.728
2024-04-18 17:50;1.728
2024-04-18 18:00;1.728
2024-04-18 18:10;1.728
2024-04-18 18:20;1.728
2024-04-18 18:30;1.728
2024-04-18 18:40;1.692
2024-04-18 18:50;1.692
2024-04-18 19:00;1.692
2024-04-18 19:10;1.656
2024-04-18 19:20;1.656
2024-04-18 19:30;1.656
2024-04-18 19:40;1.62
2024-04-18 19:50;1.62
2024-04-18 20:00;1.584
2024-04-18 20:10;1.584
2024-04-18 20:20;1.548
2024-04-18 20:30;1.512
2024-04-18 20:40;1.476
2024-04-18 20:50;1.44
2024-04-18 21:00;1.404
2024-04-18 21:10;1.368
2024-04-18 21:20;1.332
2024-04-18 21:30;1.296
2024-04-18 21:40;1.296
2024-04-18 21:50;1.26
2024-04-18 22:00;1.224
2024-04-18 22:10;1.188
2024-04-18 22:20;1.152
2024-04-18 22:30;1.116
2024-04-18 22:40;1.08
2024-04-18 22:50;1.044
2024-04-18 23:00;1.008
2024-04-18 23:10;0.972
2024-04-18 23:20;0.936
2024-04-18 23:30;0.9
2024-04-18 23:40;0.864
2024-04-18 23:50;0.792
2024-04-19 00:00;0.72
2024-04-19 00:10;0.612
2024-04-19 00:20;0.504
2024-04-19 00:30;0.324
2024-04-19 00:40;0.072
2024-04-19 00:50;-0.18
2024-04-19 01:00;-0.396
2024-04-19 01:10;-0.72
2024-04-19 01:20;-1.008
2024-04-19 01:30;-1.188
2024-04-19 01:40;-1.296
2024-04-19 01:50;-1.404
2024-04-19 02:00;-1.476
2024-04-19 02:10;-1.476
2024-04-19 02:20;-1.512
2024-04-19 02:30;-1.476
2024-04-19 02:40;-1.44
2024-04-19 02:50;-1.332
2024-04-19 03:00;-1.224
2024-04-19 03:10;-1.08
2024-04-19 03:20;-0.9
2024-04-19 03:30;-0.684
2024-04-19 03:40;-0.468
2024-04-19 03:50;-0.252
2024-04-19 04:00;0.036
2024-04-19 04:10;0.324
2024-04-19 04:20;0.612
2024-04-19 04:30;0.864
2024-04-19 04:40;1.116
2024-04-19 04:50;1.296
2024-04-19 05:00;1.44
2024-04-19 05:10;1.548
2024-04-19 05:20;1.62
2024-04-19 05:30;1.692
2024-04-19 05:40;1.728
2024-04-19 05:50;1.764
2024-04-19 06:00;1.8
2024-04-19 06:10;1.8
2024-04-19 06:20;1.8
2024-04-19 06:30;1.8
2024-04-19 06:40;1.8
2024-04-19 06:50;1.764
2024-04-19 07:00;1.764
2024-04-19 07:10;1.728
2024-04-19 07:20;1.728
2024-04-19 07:30;1.692
2024-04-19 07:40;1.692
2024-04-19 07:50;1.656
2024-04-19 08:00;1.548
2024-04-19 08:10;1.512
2024-04-19 08:20;1.476
2024-04-19 08:30;1.476
2024-04-19 08:40;1.44
2024-04-19 08:50;1.404
2024-04-19 09:00;1.332
2024-04-19 09:10;1.26
2024-04-19 09:20;1.188
2024-04-19 09:30;1.152
2024-04-19 09:40;1.116
2024-04-19 09:50;1.08
2024-04-19 10:00;1.008
2024-04-19 10:10;0.972
2024-04-19 10:20;0.9
2024-04-19 10:30;0.864
2024-04-19 10:40;0.792
2024-04-19 10:50;0.756
2024-04-19 11:00;0.684
2024-04-19 11:10;0.648
2024-04-19 11:20;0.576
2024-04-19 11:30;0.504
2024-04-19 11:40;0.396
2024-04-19 11:50;0.216
2024-04-19 12:00;0.036
2024-04-19 12:10;-0.216
2024-04-19 12:20;-0.504
2024-04-19 12:30;-0.72
2024-04-19 12:40;-0.936
2024-04-19 12:50;-1.044
2024-04-19 13:00;-0.864
2024-04-19 13:10;-0.972
2024-04-19 13:20;-1.044
2024-04-19 13:30;-1.08
2024-04-19 13:40;-1.116
2024-04-19 13:50;-1.152
2024-04-19 14:00;-1.188
2024-04-19 14:10;-1.26
2024-04-19 14:20;-1.26
2024-04-19 14:30;-1.296
2024-04-19 14:40;-1.26
2024-04-19 14:50;-1.188
2024-04-19 15:00;-1.116
2024-04-19 15:10;-1.008
2024-04-19 15:20;-0.936
2024-04-19 15:30;-0.828
2024-04-19 15:40;-0.72
2024-04-19 15:50;-0.612
2024-04-19 16:00;-0.504
2024-04-19 16:10;-0.36
2024-04-19 16:20;-0.216
2024-04-19 16:30;-0.036
2024-04-19 16:40;0.18
2024-04-19 16:50;0.396
2024-04-19 17:00;0.612
2024-04-19 17:10;0.792
2024-04-19 17:20;0.972
2024-04-19 17:30;1.116
2024-04-19 17:40;1.224
2024-04-19 17:50;1.332
2024-04-19 18:00;1.296
2024-04-19 18:10;1.368
2024-04-19 18:20;1.44
2024-04-19 18:30;1.512
2024-04-19 18:40;1.584
2024-04-19 18:50;1.656
2024-04-19 19:00;1.728
2024-04-19 19:10;1.764
2024-04-19 19:20;1.8
2024-04-19 19:30;1.836
2024-04-19 19:40;1.836
2024-04-19 19:50;1.836
2024-04-19 20:00;1.8
2024-04-19 20:10;1.8
2024-04-19 20:20;1.764
2024-04-19 20:30;1.764
2024-04-19 20:40;1.728
2024-04-19 20:50;1.692
2024-04-19 21:00;1.656
2024-04-19 21:10;1.62
2024-04-19 21:20;1.584
2024-04-19 21:30;1.548
2024-04-19 21:40;1.476
2024-04-19 21:50;1.44
2024-04-19 22:00;1.404
2024-04-19 22:10;1.332
2024-04-19 22:20;1.26
2024-04-19 22:30;1.224
2024-04-19 22:40;1.152
2024-04-19 22:50;1.08
2024-04-19 23:00;1.008
2024-04-19 23:10;0.972
2024-04-19 23:20;0.9
2024-04-19 23:30;0.864
2024-04-19 23:40;0.828
2024-04-19 23:50;0.792
2024-04-20 00:00;0.756
2024-04-20 00:10;0.72
2024-04-20 00:20;0.684
2024-04-20 00:30;0.648
2024-04-20 00:40;0.576
2024-04-20 00:50;0.54
2024-04-20 01:00;0.468
2024-04-20 01:10;0.36
2024-04-20 01:20;0.252
2024-04-20 01:30;0.144
2024-04-20 01:40;0
2024-04-20 01:50;-0.216
2024-04-20 02:00;-0.396
2024-04-20 02:10;-0.576
2024-04-20 02:20;-0.756
2024-04-20 02:30;-0.9
2024-04-20 02:40;-1.008
2024-04-20 02:50;-1.08
2024-04-20 03:00;-1.116
2024-04-20 03:10;-1.116
2024-04-20 03:20;-1.116
2024-04-20 03:30;-1.044
2024-04-20 03:40;-0.972
2024-04-20 03:50;-0.864
2024-04-20 04:00;-0.756
2024-04-20 04:10;-0.576
2024-04-20 04:20;-0.396
2024-04-20 04:30;-0.18
2024-04-20 04:40;0.036
2024-04-20 04:50;0.324
2024-04-20 05:00;0.612
2024-04-20 05:10;0.864
2024-04-20 05:20;1.116
2024-04-20 05:30;1.332
2024-04-20 05:40;1.512
2024-04-20 05:50;1.656
2024-04-20 06:00;1.764
2024-04-20 06:10;1.836
2024-04-20 06:20;1.908
2024-04-20 06:30;1.944
2024-04-20 06:40;1.98
2024-04-20 06:50;2.016
2024-04-20 07:00;2.016
2024-04-20 07:10;2.016
2024-04-20 07:20;2.016
2024-04-20 07:30;2.016
2024-04-20 07:40;1.98
2024-04-20 07:50;1.98
2024-04-20 08:00;1.944
2024-04-20 08:10;1.944
2024-04-20 08:20;1.944
2024-04-20 08:30;1.908
2024-04-20 08:40;1.908
2024-04-20 08:50;1.872
2024-04-20 09:00;1.872
2024-04-20 09:10;1.836
2024-04-20 09:20;1.8
2024-04-20 09:30;1.764
2024-04-20 09:40;1.728
2024-04-20 09:50;1.656
2024-04-20 10:00;1.62
2024-04-20 10:10;1.548
2024-04-20 10:20;1.512
2024-04-20 10:30;1.476
2024-04-20 10:40;1.404
2024-04-20 10:50;1.368
2024-04-20 11:00;1.332
2024-04-20 11:10;1.332
2024-04-20 11:20;1.296
2024-04-20 11:30;1.26
2024-04-20 11:40;1.26
2024-04-20 11:50;1.224
2024-04-20 12:00;1.188
2024-04-20 12:10;1.188
2024-04-20 12:20;1.152
2024-04-20 12:30;1.116
2024-04-20 12:40;1.044
2024-04-20 12:50;1.008
2024-04-20 13:00;0.972
2024-04-20 13:10;0.9
2024-04-20 13:20;0.828
2024-04-20 13:30;0.756
2024-04-20 13:40;0.648
2024-04-20 13:50;0.504
2024-04-20 14:00;0.288
2024-04-20 14:10;0.036
2024-04-20 14:20;-0.324
2024-04-20 14:30;-0.648
2024-04-20 14:40;-0.936
2024-04-20 14:50;-1.152
2024-04-20 15:00;-1.332
2024-04-20 15:10;-1.44
2024-04-20 15:20;-1.512
2024-04-20 15:30;-1.584
2024-04-20 15:40;-1.584
2024-04-20 15:50;-1.548
2024-04-20 16:00;-1.476
2024-04-20 16:10;-1.368
2024-04-20 16:20;-1.224
2024-04-20 16:30;-1.044
2024-04-20 16:40;-0.828
2024-04-20 16:50;-0.612
2024-04-20 17:00;-0.36
2024-04-20 17:10;-0.036
2024-04-20 17:20;0.288
2024-04-20 17:30;0.612
2024-04-20 17:40;0.936
2024-04-20 17:50;1.224
2024-04-20 18:00;1.44
2024-04-20 18:10;1.584
2024-04-20 18:20;1.692
2024-04-20 18:30;1.8
2024-04-20 18:40;1.872
2024-04-20 18:50;1.908
2024-04-20 19:00;1.944
2024-04-20 19:10;1.98
2024-04-20 19:20;2.016
2024-04-20 19:30;2.016
2024-04-20 19:40;2.016
2024-04-20 19:50;2.052
2024-04-20 20:00;2.016
2024-04-20 20:10;2.016
2024-04-20 20:20;2.016
2024-04-20 20:30;2.016
2024-04-20 20:40;1.98
2024-04-20 20:50;1.98
2024-04-20 21:00;1.944
2024-04-20 21:10;1.944
2024-04-20 21:20;1.908
2024-04-20 21:30;1.908
2024-04-20 21:40;1.872
2024-04-20 21:50;1.836
2024-04-20 22:00;1.8
2024-04-20 22:10;1.764
2024-04-20 22:20;1.728
2024-04-20 22:30;1.656
2024-04-20 22:40;1.62
2024-04-20 22:50;1.584
2024-04-20 23:00;1.512
2024-04-20 23:10;1.476
2024-04-20 23:20;1.44
2024-04-20 23:30;1.44
2024-04-20 23:40;1.404
2024-04-20 23:50;1.368
2024-04-21 00:00;1.368
2024-04-21 00:10;1.332
2024-04-21 00:20;1.332
2024-04-21 00:30;1.296
2024-04-21 00:40;1.296
2024-04-21 00:50;1.296
2024-04-21 01:00;1.26
2024-04-21 01:10;1.26
2024-04-21 01:20;1.224
2024-04-21 01:30;1.224
2024-04-21 01:40;1.188
2024-04-21 01:50;1.152
2024-04-21 02:00;1.116
2024-04-21 02:10;1.08
2024-04-21 02:20;0.972
2024-04-21 02:30;0.864
2024-04-21 02:40;0.72
2024-04-21 02:50;0.432
2024-04-21 03:00;0.072
2024-04-21 03:10;-0.324
2024-04-21 03:20;-0.684
2024-04-21 03:30;-0.972
2024-04-21 03:40;-1.152
2024-04-21 03:50;-1.296
2024-04-21 04:00;-1.332
2024-04-21 04:10;-1.368
2024-04-21 04:20;-1.332
2024-04-21 04:30;-1.26
2024-04-21 04:40;-1.152
2024-04-21 04:50;-0.972
2024-04-21 05:00;-0.792
2024-04-21 05:10;-0.576
2024-04-21 05:20;-0.36
2024-04-21 05:30;0
2024-04-21 05:40;0.432
2024-04-21 05:50;0.864
2024-04-21 06:00;1.26
2024-04-21 06:10;1.512
2024-04-21 06:20;1.692
2024-04-21 06:30;1.8
2024-04-21 06:40;1.872
2024-04-21 06:50;1.944
2024-04-21 07:00;1.98
2024-04-21 07:10;2.016
2024-04-21 07:20;2.052
2024-04-21 07:30;2.052
2024-04-21 07:40;2.088
2024-04-21 07:50;2.088
2024-04-21 08:00;2.088
2024-04-21 08:10;2.088
2024-04-21 08:20;2.088
2024-04-21 08:30;2.052
2024-04-21 08:40;2.052
2024-04-21 08:50;2.016
2024-04-21 09:00;2.016
2024-04-21 09:10;2.016
2024-04-21 09:20;1.98
2024-04-21 09:30;1.98
2024-04-21 09:40;1.98
2024-04-21 09:50;1.944
2024-04-21 10:00;1.944
2024-04-21 10:10;1.908
2024-04-21 10:20;1.908
2024-04-21 10:30;1.872
2024-04-21 10:40;1.836
2024-04-21 10:50;1.8
2024-04-21 11:00;1.764
2024-04-21 11:10;1.728
2024-04-21 11:20;1.692
2024-04-21 11:30;1.656
2024-04-21 11:40;1.656
2024-04-21 11:50;1.62
2024-04-21 12:00;1.62
2024-04-21 12:10;1.584
2024-04-21 12:20;1.548
2024-04-21 12:30;1.548
2024-04-21 12:40;1.512
2024-04-21 12:50;1.512
2024-04-21 13:00;1.476
2024-04-21 13:10;1.44
2024-04-21 13:20;1.404
2024-04-21 13:30;1.368
2024-04-21 13:40;1.368
2024-04-21 13:50;1.332
2024-04-21 14:00;1.26
2024-04-21 14:10;1.224
2024-04-21 14:20;1.152
2024-04-21 14:30;1.008
2024-04-21 14:40;0.828
2024-04-21 14:50;0.54
2024-04-21 15:00;0.108
2024-04-21 15:10;-0.36
2024-04-21 15:20;-0.756
2024-04-21 15:30;-1.044
2024-04-21 15:40;-1.224
2024-04-21 15:50;-1.368
2024-04-21 16:00;-1.44
2024-04-21 16:10;-1.476
2024-04-21 16:20;-1.476
2024-04-21 16:30;-1.404
2024-04-21 16:40;-1.296
2024-04-21 16:50;-1.152
2024-04-21 17:00;-0.972
2024-04-21 17:10;-0.756
2024-04-21 17:20;-0.504
2024-04-21 17:30;-0.216
2024-04-21 17:40;0.18
2024-04-21 17:50;0.576
2024-04-21 18:00;0.936
2024-04-21 18:10;1.224
2024-04-21 18:20;1.44
2024-04-21 18:30;1.62
2024-04-21 18:40;1.728
2024-04-21 18:50;1.8
2024-04-21 19:00;1.872
2024-04-21 19:10;1.908
2024-04-21 19:20;1.944
2024-04-21 19:30;1.98
2024-04-21 19:40;2.016
2024-04-21 19:50;2.016
2024-04-21 20:00;2.016
2024-04-21 20:10;2.052
2024-04-21 20:20;2.052
2024-04-21 20:30;2.052
2024-04-21 20:40;2.052
2024-04-21 20:50;2.016
2024-04-21 21:00;2.016
2024-04-21 21:10;2.016
2024-04-21 21:20;2.016
2024-04-21 21:30;2.016
2024-04-21 21:40;2.016
2024-04-21 21:50;1.98
2024-04-21 22:00;1.98
2024-04-21 22:10;1.98
2024-04-21 22:20;1.944
2024-04-21 22:30;1.944
2024-04-21 22:40;1.908
2024-04-21 22:50;1.872
2024-04-21 23:00;1.872
2024-04-21 23:10;1.836
2024-04-21 23:20;1.8
2024-04-21 23:30;1.764
2024-04-21 23:40;1.728
2024-04-21 23:50;1.728
2024-04-22 00:00;1.692
2024-04-22 00:10;1.692
2024-04-22 00:20;1.656
2024-04-22 00:30;1.656
2024-04-22 00:40;1.62
2024-04-22 00:50;1.62
2024-04-22 01:00;1.584
2024-04-22 01:10;1.584
2024-04-22 01:20;1.548
2024-04-22 01:30;1.548
2024-04-22 01:40;1.512
2024-04-22 01:50;1.512
2024-04-22 02:00;1.476
2024-04-22 02:10;1.476
2024-04-22 02:20;1.44
2024-04-22 02:30;1.404
2024-04-22 02:40;1.368
2024-04-22 02:50;1.296
2024-04-22 03:00;1.224
2024-04-22 03:10;1.116
2024-04-22 03:20;0.972
2024-04-22 03:30;0.684
2024-04-22 03:40;0.288
2024-04-22 03:50;-0.18
2024-04-22 04:00;-0.576
2024-04-22 04:10;-0.864
2024-04-22 04:20;-1.08
2024-04-22 04:30;-1.188
2024-04-22 04:40;-1.26
2024-04-22 04:50;-1.26
2024-04-22 05:00;-1.188
2024-04-22 05:10;-1.116
2024-04-22 05:20;-0.972
2024-04-22 05:30;-0.756
2024-04-22 05:40;-0.54
2024-04-22 05:50;-0.252
2024-04-22 06:00;0.108
2024-04-22 06:10;0.54
2024-04-22 06:20;0.936
2024-04-22 06:30;1.296
2024-04-22 06:40;1.548
2024-04-22 06:50;1.728
2024-04-22 07:00;1.836
2024-04-22 07:10;1.908
2024-04-22 07:20;1.944
2024-04-22 07:30;2.016
2024-04-22 07:40;2.016
2024-04-22 07:50;2.052
2024-04-22 08:00;2.088
2024-04-22 08:10;2.088
2024-04-22 08:20;2.124
2024-04-22 08:30;2.124
2024-04-22 08:40;2.124
2024-04-22 08:50;2.124
2024-04-22 09:00;2.124
2024-04-22 09:10;2.124
2024-04-22 09:20;2.124
2024-04-22 09:30;2.124
2024-04-22 09:40;2.124
2024-04-22 09:50;2.124
2024-04-22 10:00;2.124
2024-04-22 10:10;2.124
2024-04-22 10:20;2.124
2024-04-22 10:30;2.088
2024-04-22 10:40;2.088
2024-04-22 10:50;2.052
2024-04-22 11:00;2.052
2024-04-22 11:10;2.016
2024-04-22 11:20;1.98
2024-04-22 11:30;1.944
2024-04-22 11:40;1.908
2024-04-22 11:50;1.872
2024-04-22 12:00;1.836
2024-04-22 12:10;1.836
2024-04-22 12:20;1.836
2024-04-22 12:30;1.8
2024-04-22 12:40;1.8
2024-04-22 12:50;1.764
2024-04-22 13:00;1.764
2024-04-22 13:10;1.764
2024-04-22 13:20;1.728
2024-04-22 13:30;1.728
2024-04-22 13:40;1.692
2024-04-22 13:50;1.692
2024-04-22 14:00;1.656
2024-04-22 14:10;1.656
2024-04-22 14:20;1.62
2024-04-22 14:30;1.584
2024-04-22 14:40;1.548
2024-04-22 14:50;1.512
2024-04-22 15:00;1.404
2024-04-22 15:10;1.296
2024-04-22 15:20;1.08
2024-04-22 15:30;0.72
2024-04-22 15:40;0.216
2024-04-22 15:50;-0.288
2024-04-22 16:00;-0.648
2024-04-22 16:10;-0.936
2024-04-22 16:20;-1.08
2024-04-22 16:30;-1.224
2024-04-22 16:40;-1.296
2024-04-22 16:50;-1.296
2024-04-22 17:00;-1.26
2024-04-22 17:10;-1.188
2024-04-22 17:20;-1.08
2024-04-22 17:30;-0.936
2024-04-22 17:40;-0.756
2024-04-22 17:50;-0.576
2024-04-22 18:00;-0.324
2024-04-22 18:10;-0.036
2024-04-22 18:20;0.324
2024-04-22 18:30;0.684
2024-04-22 18:40;0.972
2024-04-22 18:50;1.188
2024-04-22 19:00;1.368
2024-04-22 19:10;1.476
2024-04-22 19:20;1.584
2024-04-22 19:30;1.692
2024-04-22 19:40;1.764
2024-04-22 19:50;1.836
2024-04-22 20:00;1.908
2024-04-22 20:10;1.944
2024-04-22 20:20;1.98
2024-04-22 20:30;2.016
2024-04-22 20:40;2.052
2024-04-22 20:50;2.088
2024-04-22 21:00;2.088
2024-04-22 21:10;2.124
2024-04-22 21:20;2.124
2024-04-22 21:30;2.088
2024-04-22 21:40;2.088
2024-04-22 21:50;2.088
2024-04-22 22:00;2.088
2024-04-22 22:10;2.052
2024-04-22 22:20;2.052
2024-04-22 22:30;2.016
2024-04-22 22:40;1.98
2024-04-22 22:50;1.98
2024-04-22 23:00;1.944
2024-04-22 23:10;1.908
2024-04-22 23:20;1.872
2024-04-22 23:30;1.836
2024-04-22 23:40;1.8
2024-04-22 23:50;1.728
2024-04-23 00:00;1.692
2024-04-23 00:10;1.656
2024-04-23 00:20;1.656
2024-04-23 00:30;1.62
2024-04-23 00:40;1.584
2024-04-23 00:50;1.584
2024-04-23 01:00;1.548
2024-04-23 01:10;1.512
2024-04-23 01:20;1.512
2024-04-23 01:30;1.476
2024-04-23 01:40;1.44
2024-04-23 01:50;1.44
2024-04-23 02:00;1.404
2024-04-23 02:10;1.368
2024-04-23 02:20;1.332
2024-04-23 02:30;1.332
2024-04-23 02:40;1.296
2024-04-23 02:50;1.26
2024-04-23 03:00;1.188
2024-04-23 03:10;1.116
2024-04-23 03:20;1.044
2024-04-23 03:30;0.864
2024-04-23 03:40;0.612
2024-04-23 03:50;0.216
2024-04-23 04:00;-0.252
2024-04-23 04:10;-0.684
2024-04-23 04:20;-1.008
2024-04-23 04:30;-1.224
2024-04-23 04:40;-1.368
2024-04-23 04:50;-1.476
2024-04-23 05:00;-1.548
2024-04-23 05:10;-1.548
2024-04-23 05:20;-1.512
2024-04-23 05:30;-1.44
2024-04-23 05:40;-1.332
2024-04-23 05:50;-1.188
2024-04-23 06:00;-1.008
2024-04-23 06:10;-0.792
2024-04-23 06:20;-0.54
2024-04-23 06:30;-0.252
2024-04-23 06:40;0.108
2024-04-23 06:50;0.504
2024-04-23 07:00;0.828
2024-04-23 07:10;1.116
2024-04-23 07:20;1.332
2024-04-23 07:30;1.512
2024-04-23 07:40;1.656
2024-04-23 07:50;1.728
2024-04-23 08:00;1.836
2024-04-23 08:10;1.872
2024-04-23 08:20;1.944
2024-04-23 08:30;1.98
2024-04-23 08:40;2.016
2024-04-23 08:50;2.016
2024-04-23 09:00;2.052
2024-04-23 09:10;2.052
2024-04-23 09:20;2.052
2024-04-23 09:30;2.052
2024-04-23 09:40;2.016
2024-04-23 09:50;2.016
2024-04-23 10:00;2.016
2024-04-23 10:10;2.016
2024-04-23 10:20;1.98
2024-04-23 10:30;1.98
2024-04-23 10:40;1.944
2024-04-23 10:50;1.944
2024-04-23 11:00;1.908
2024-04-23 11:10;1.872
2024-04-23 11:20;1.836
2024-04-23 11:30;1.8
2024-04-23 11:40;1.764
2024-04-23 11:50;1.728
2024-04-23 12:00;1.692
2024-04-23 12:10;1.656
2024-04-23 12:20;1.656
2024-04-23 12:30;1.62
2024-04-23 12:40;1.62
2024-04-23 12:50;1.584
2024-04-23 13:00;1.584
2024-04-23 13:10;1.584
2024-04-23 13:20;1.548
2024-04-23 13:30;1.512
2024-04-23 13:40;1.512
2024-04-23 13:50;1.476
2024-04-23 14:00;1.44
2024-04-23 14:10;1.44
2024-04-23 14:20;1.404
2024-04-23 14:30;1.368
2024-04-23 14:40;1.332
2024-04-23 14:50;1.296
2024-04-23 15:00;1.26
2024-04-23 15:10;1.188
2024-04-23 15:20;1.08
2024-04-23 15:30;0.936
2024-04-23 15:40;0.72
2024-04-23 15:50;0.36
2024-04-23 16:00;-0.108
2024-04-23 16:10;-0.504
2024-04-23 16:20;-0.828
2024-04-23 16:30;-1.08
2024-04-23 16:40;-1.26
2024-04-23 16:50;-1.368
2024-04-23 17:00;-1.44
2024-04-23 17:10;-1.512
2024-04-23 17:20;-1.512
2024-04-23 17:30;-1.44
2024-04-23 17:40;-1.368
2024-04-23 17:50;-1.26
2024-04-23 18:00;-1.152
2024-04-23 18:10;-0.972
2024-04-23 18:20;-0.756
2024-04-23 18:30;-0.504
2024-04-23 18:40;-0.216
2024-04-23 18:50;0.144
2024-04-23 19:00;0.468
2024-04-23 19:10;0.792
2024-04-23 19:20;1.08
2024-04-23 19:30;1.296
2024-04-23 19:40;1.44
2024-04-23 19:50;1.584
2024-04-23 20:00;1.692
2024-04-23 20:10;1.8
2024-04-23 20:20;1.872
2024-04-23 20:30;1.944
2024-04-23 20:40;2.016
2024-04-23 20:50;2.052
2024-04-23 21:00;2.052
2024-04-23 21:10;2.088
2024-04-23 21:20;2.088
2024-04-23 21:30;2.088
2024-04-23 21:40;2.088
2024-04-23 21:50;2.088
2024-04-23 22:00;2.088
2024-04-23 22:10;2.088
2024-04-23 22:20;2.088
2024-04-23 22:30;2.052
2024-04-23 22:40;2.052
2024-04-23 22:50;2.016
2024-04-23 23:00;2.016
2024-04-23 23:10;1.98
2024-04-23 23:20;1.98
2024-04-23 23:30;1.944
2024-04-23 23:40;1.908
2024-04-23 23:50;1.872
2024-04-24 00:00;1.836
2024-04-24 00:10;1.8
2024-04-24 00:20;1.764
2024-04-24 00:30;1.728
2024-04-24 00:40;1.692
2024-04-24 00:50;1.656
2024-04-24 01:00;1.62
2024-04-24 01:10;1.62
2024-04-24 01:20;1.584
2024-04-24 01:30;1.548
2024-04-24 01:40;1.548
2024-04-24 01:50;1.512
2024-04-24 02:00;1.512
2024-04-24 02:10;1.476
2024-04-24 02:20;1.44
2024-04-24 02:30;1.44
2024-04-24 02:40;1.404
2024-04-24 02:50;1.404
2024-04-24 03:00;1.368
2024-04-24 03:10;1.368
2024-04-24 03:20;1.332
2024-04-24 03:30;1.296
2024-04-24 03:40;1.224
2024-04-24 03:50;1.152
2024-04-24 04:00;1.044
2024-04-24 04:10;0.864
2024-04-24 04:20;0.612
2024-04-24 04:30;0.216
2024-04-24 04:40;-0.252
2024-04-24 04:50;-0.648
2024-04-24 05:00;-0.936
2024-04-24 05:10;-1.152
2024-04-24 05:20;-1.296
2024-04-24 05:30;-1.404
2024-04-24 05:40;-1.44
2024-04-24 05:50;-1.404
2024-04-24 06:00;-1.368
2024-04-24 06:10;-1.26
2024-04-24 06:20;-1.116
2024-04-24 06:30;-0.936
2024-04-24 06:40;-0.72
2024-04-24 06:50;-0.468
2024-04-24 07:00;-0.144
2024-04-24 07:10;0.252
2024-04-24 07:20;0.684
2024-04-24 07:30;1.044
2024-04-24 07:40;1.296
2024-04-24 07:50;1.512
2024-04-24 08:00;1.656
2024-04-24 08:10;1.764
2024-04-24 08:20;1.836
2024-04-24 08:30;1.944
2024-04-24 08:40;1.98
2024-04-24 08:50;2.052
2024-04-24 09:00;2.088
2024-04-24 09:10;2.124
2024-04-24 09:20;2.16
2024-04-24 09:30;2.16
2024-04-24 09:40;2.16
2024-04-24 09:50;2.16
2024-04-24 10:00;2.16
2024-04-24 10:10;2.16
2024-04-24 10:20;2.16
2024-04-24 10:30;2.16
2024-04-24 10:40;2.124
2024-04-24 10:50;2.124
2024-04-24 11:00;2.124
2024-04-24 11:10;2.088
2024-04-24 11:20;2.088
2024-04-24 11:30;2.052
2024-04-24 11:40;2.016
2024-04-24 11:50;2.016
2024-04-24 12:00;1.944
2024-04-24 12:10;1.908
2024-04-24 12:20;1.872
2024-04-24 12:30;1.836
2024-04-24 12:40;1.8
2024-04-24 12:50;1.764
2024-04-24 13:00;1.728
2024-04-24 13:10;1.692
2024-04-24 13:20;1.692
2024-04-24 13:30;1.656
2024-04-24 13:40;1.656
2024-04-24 13:50;1.62
2024-04-24 14:00;1.62
2024-04-24 14:10;1.584
2024-04-24 14:20;1.548
2024-04-24 14:30;1.548
2024-04-24 14:40;1.512
2024-04-24 14:50;1.512
2024-04-24 15:00;1.476
2024-04-24 15:10;1.476
2024-04-24 15:20;1.44
2024-04-24 15:30;1.404
2024-04-24 15:40;1.368
2024-04-24 15:50;1.296
2024-04-24 16:00;1.188
2024-04-24 16:10;1.008
2024-04-24 16:20;0.756
2024-04-24 16:30;0.324
2024-04-24 16:40;-0.18
2024-04-24 16:50;-0.612
2024-04-24 17:00;-0.9
2024-04-24 17:10;-1.116
2024-04-24 17:20;-1.296
2024-04-24 17:30;-1.404
2024-04-24 17:40;-1.476
2024-04-24 17:50;-1.476
2024-04-24 18:00;-1.44
2024-04-24 18:10;-1.404
2024-04-24 18:20;-1.296
2024-04-24 18:30;-1.152
2024-04-24 18:40;-0.972
2024-04-24 18:50;-0.792
2024-04-24 19:00;-0.54
2024-04-24 19:10;-0.216
2024-04-24 19:20;0.144
2024-04-24 19:30;0.504
2024-04-24 19:40;0.828
2024-04-24 19:50;1.08
2024-04-24 20:00;1.296
2024-04-24 20:10;1.44
2024-04-24 20:20;1.584
2024-04-24 20:30;1.692
2024-04-24 20:40;1.8
2024-04-24 20:50;1.908
2024-04-24 21:00;1.98
2024-04-24 21:10;2.052
2024-04-24 21:20;2.088
2024-04-24 21:30;2.124
2024-04-24 21:40;2.16
2024-04-24 21:50;2.16
2024-04-24 22:00;2.196
2024-04-24 22:10;2.196
2024-04-24 22:20;2.196
2024-04-24 22:30;2.196
2024-04-24 22:40;2.196
2024-04-24 22:50;2.16
2024-04-24 23:00;2.16
2024-04-24 23:10;2.16
2024-04-24 23:20;2.124
2024-04-24 23:30;2.088
2024-04-24 23:40;2.088
2024-04-24 23:50;2.052
2024-04-25 00:00;2.016
2024-04-25 00:10;1.98
2024-04-25 00:20;1.908
2024-04-25 00:30;1.872
2024-04-25 00:40;1.836
2024-04-25 00:50;1.8
2024-04-25 01:00;1.764
2024-04-25 01:10;1.728
2024-04-25 01:20;1.692
2024-04-25 01:30;1.692
2024-04-25 01:40;1.656
2024-04-25 01:50;1.656
2024-04-25 02:00;1.62
2024-04-25 02:10;1.62
2024-04-25 02:20;1.584
2024-04-25 02:30;1.548
2024-04-25 02:40;1.548
2024-04-25 02:50;1.512
2024-04-25 03:00;1.512
2024-04-25 03:10;1.476
2024-04-25 03:20;1.476
2024-04-25 03:30;1.44
2024-04-25 03:40;1.44
2024-04-25 03:50;1.404
2024-04-25 04:00;1.332
2024-04-25 04:10;1.26
2024-04-25 04:20;1.116
2024-04-25 04:30;0.9
2024-04-25 04:40;0.54
2024-04-25 04:50;0.072
2024-04-25 05:00;-0.432
2024-04-25 05:10;-0.792
2024-04-25 05:20;-1.044
2024-04-25 05:30;-1.224
2024-04-25 05:40;-1.332
2024-04-25 05:50;-1.404
2024-04-25 06:00;-1.404
2024-04-25 06:10;-1.368
2024-04-25 06:20;-1.296
2024-04-25 06:30;-1.188
2024-04-25 06:40;-1.08
2024-04-25 06:50;-0.936
2024-04-25 07:00;-0.756
2024-04-25 07:10;-0.576
2024-04-25 07:20;-0.324
2024-04-25 07:30;0
2024-04-25 07:40;0.36
2024-04-25 07:50;0.72
2024-04-25 08:00;1.008
2024-04-25 08:10;1.26
2024-04-25 08:20;1.476
2024-04-25 08:30;1.656
2024-04-25 08:40;1.8
2024-04-25 08:50;1.908
2024-04-25 09:00;1.98
2024-04-25 09:10;2.052
2024-04-25 09:20;2.088
2024-04-25 09:30;2.124
2024-04-25 09:40;2.16
2024-04-25 09:50;2.196
2024-04-25 10:00;2.196
2024-04-25 10:10;2.196
2024-04-25 10:20;2.232
2024-04-25 10:30;2.232
2024-04-25 10:40;2.196
2024-04-25 10:50;2.196
2024-04-25 11:00;2.196
2024-04-25 11:10;2.16